This is the latest recevied weather packets stored in our database for station/object JQ3CCU-10. If no packets are shown the sender has not sent any weather packets the latest 10 day(s).
| Time | Temp. | Humidity | Pressure | Rain* | Wind** | Luminosity | Snow |
|---|---|---|---|---|---|---|---|
| 1777686855 | 25° C | 56% | - | - | 0 m/s | - | - |
| 1777685055 | 28.89° C | 44% | - | - | 0 m/s | - | - |
| 1777683255 | 28.89° C | 44% | - | - | 0 m/s | - | - |
| 1777681455 | 31.67° C | 37% | - | - | 0 m/s | - | - |
| 1777679655 | 31.67° C | 37% | - | - | 0 m/s | - | - |
| 1777677855 | 29.44° C | 40% | - | - | 0 m/s | - | - |
| 1777676055 | 29.44° C | 40% | - | - | 0 m/s | - | - |
| 1777674256 | 21.67° C | 61% | - | - | 0 m/s | - | - |
| 1777672455 | 21.67° C | 61% | - | - | 0 m/s | - | - |
| 1777670655 | 17.22° C | 79% | - | - | 0 m/s | - | - |
| 1777668855 | 17.22° C | 79% | - | - | 0 m/s | - | - |
| 1777667055 | 17.78° C | 80% | - | - | 0 m/s | - | - |
| 1777665255 | 17.78° C | 80% | - | - | 0 m/s | - | - |
| 1777663455 | 17.78° C | 80% | - | - | 0 m/s | - | - |
| 1777661655 | 17.78° C | 80% | - | - | 0 m/s | - | - |
| 1777659855 | 17.78° C | 77% | - | - | 0 m/s | - | - |
| 1777658055 | 17.78° C | 77% | - | - | 0 m/s | - | - |
| 1777656255 | 18.33° C | 77% | - | - | 0 m/s | - | - |
| 1777654455 | 18.33° C | 77% | - | - | 0 m/s | - | - |
| 1777652655 | 18.89° C | 71% | - | - | 0 m/s | - | - |
| 1777650855 | 18.89° C | 71% | - | - | 0 m/s | - | - |
| 1777649055 | 18.89° C | 71% | - | - | 0 m/s | - | - |
| 1777647255 | 18.89° C | 71% | - | - | 0 m/s | - | - |
| 1777645455 | 18.89° C | 71% | - | - | 0 m/s | - | - |
| 1777643655 | 18.89° C | 71% | - | - | 0 m/s | - | - |
* Rain since midnight (hover to see other rain measurements)
** Current wind speed in m/s (hover to see current wind gust speed)